Погода в Стерлитамаке

Хотите узнать прогноз погоды в Стерлитамаке? Тогда Вам сюда: Погода в Стерлитамаке

Поиск расширенной информации на нашем сайте:

Полезная информация:

Новости сайта



02.01.2020
Опубликован Долгосрочный прогноз погоды по городам России и ближнего зарубежья на январь 2020 года.
Карты: Прогноз на январь и февраль 2020 года, Сравнение прогнозируемой аномалии приземной температуры воздуха на январь 2020 года по разным моделям.




Погода в Стерлитамаке - сегодня

Время (UTC), дата Ветер
(°,м/с) 
Видим.   Явления Облачность Т
(°С)
Тd
(°С)
f(%) Тe
(°С)
Pmin
(гПа)
dP
(гПа)
Po
(мм)
O2
(г/м3)
Тmin Tmax R s Состояние
почвы
12 03.03.21 220 (ЮЗ) 10 км    9/9 600 м кучево-дожд. 
[Cb cap]
+0.3 -4.2 72 1001.7  0.3  739  298           
15 03.03.21 230 (ЮЗ) 4000 м  слаб. снег{ливн. осадки}  10/0 средняя 
[Sc|As op]
-1.3 -3.8 83 -1  1002.2  0.4  739  300    +1.5  0.1     
18 03.03.21 250 (З) 10 км  в посл. час снег{ливн. осадки}  9/0 средняя 
[Ac As]
-2.2 -4 87 -2  1002.1  0.1  739  301           
21 03.03.21 250 (З) 10 км    8/0 средняя 
[Ac trans]
-5.5 -7.3 87 -5  1002.5  0.1  739  305           
00 04.03.21 250 (З) 10 км    9/4 600 м средняя 
[Sc|Ac trans]
-5.9 -8.6 81 -6  1003  0.5  739  305           
03 04.03.21 270 (З) 10 км    9/6 600 м средняя 
[Sc|Ac trans]
-5.3 -9.2 74 -7  1004.3  1.4  740  305  -6.3    0.5  54  равномерный
мокрый или
старый снег
100% 
06 04.03.21 210 (ЮЗ) 20000 м    6/0 средняя, верхняя 
[Ac trans|Ci fib]
-4.4 -10.9 60 -6  1005.3  741  304  -7.1         
09 04.03.21 220 (ЮЗ) 20000 м    9/0 средняя, верхняя 
[Ac lent|Ci fib]
-2.3 -10.9 52 -5  1004.9  -0.2  741  302           
12 04.03.21 200 (Ю) 4000 м  в посл. час ливневой снег  10/8 600 м кучево-дожд., средняя 
[Cb cap|As op]
-4.4 -8.4 74 -8  1004  -1  740  304           
15 04.03.21 210 (ЮЗ) 10 км  позёмок  6/0 средняя, верхняя 
[Ac trans|Ci fib]
-3.9 -7.4 77 -7  1002.6  -1  739  303    -2.1  0.0     
18 04.03.21 220 (ЮЗ) 5-13{13}  2000 м  снег  10/0 средняя 
[As op]
-2.2 -4.2 86 -6  1000.2  -1.4  737  300           
21 04.03.21 220 (ЮЗ) 3{13}  4000 м  слаб. снег  10/10 600 м 
[]
-0.9 -2.8 87 -3  999.6  -0.5  737  298           
00 05.03.21 230 (ЮЗ) 4000 м  снег  10/10 600 м 
[Ns]
-0.2 -2.6 84 -3  1000.4  0.6  738  298           
03 05.03.21 220 (ЮЗ) 2000 м  снег  10/10 600 м 
[Ns]
-0.9 -3.2 84 -3  1001.7  1.2  738  299  -3.9    54  равномерный
мокрый или
старый снег
100% 
06 05.03.21 210 (ЮЗ) 0500 м  сильн. снег  10/10 600 м 
[Ns]
-1.4 -3.3 87 -4  1001.7  738  299           
09 05.03.21 210 (ЮЗ) 5-11{11}  0500 м  сильн. снег  10/10 600 м 
[Ns]
-1.3 -3.2 87 -5  1000.1  -1.5  737  299           
12 05.03.21 220 (ЮЗ) 3{12}  0500 м  сильн. снег  10/10 600 м 
[Ns]
-0.6 -2.3 88 -2  999.3  -0.7  737  298           
15 05.03.21 340 (С) 4000 м  слаб. ливневой снег  10/10 600 м кучево-дожд. 
[Cb cap]
-3.3 -5.9 82 -6  1004.3  4.7  740  303    -0     
18 05.03.21 280 (З) 10 км  {ливн. осадки, снег}  ясно 
-6.9 -10.3 77 -7  1009.2  4.6  744  308           
21 05.03.21 тихо ()   10 км    1/0 средняя 
[Ac trans]
-14.9 -17.4 81 -15  1012  2.1  745  319           
00 06.03.21 210 (ЮЗ) 10 км    ясно 
-15.6 -18.2 80 -16  1013.1  746  320           
03 06.03.21 тихо ()   10 км    6/3 600 м средняя 
[Sc|Ac trans]
-19.2 -22.2 77 -19  1014.5  1.1  747  325  -20.3    0.0  57  равномерный
сухой снег
100% 
06 06.03.21 210 (ЮЗ) 10 км    3/0 средняя 
[Ac trans]
-8.9 -11.5 81 -9  1014.8  748  313           
09 06.03.21 210 (ЮЗ) 10 км    3/0 верхняя 
[Ci fib]
-4.4 -11.2 59 -7  1014.2  -0.2  748  307           
12 06.03.21 200 (Ю) 10 км    9/0 средняя, верхняя 
[Ac trans|Ci fib]
-3.8 -9.6 64 -6  1013.6  -0.6  747  306           
Время (UTC), дата Ветер
(°,м/с) 
Видим.   Явления Облачность Т
(°С)
Тd
(°С)
f(%) Тe
(°С)
Pmin
(гПа)
dP
(гПа)
Po
(мм)
O2
(г/м3)
Тmin Tmax R s Состояние
почвы

Для получения пояснительной информации подведите курсор к названию столбца.

ПОГОДА в Стерлитамаке - архив

Всё, что Вы хотите узнать о погоде в Стерлитамаке - удобно и подробно!

Выберите нужную дату (начиная с 1 января 2019* года) и нажмите кнопку "Найти".
Будут отображены архивные сводки погоды по пункту Стерлитамак, начиная с указанной даты.


Отображать данные в формате CSV (для использования в таблицах Excel)


Внимание! Наш архив погоды предназначен исключительно для личного некоммерческого использования в познавательных целях. Если Вам необходимы официальные справки о состоянии погоды (для производственных, юридических, коммерческих и т.п. целей), обращайтесь в органы Росгидромета.

*Примечание: данная дата относится к архиву по метеостанциям СССР (Россия, СНГ, Балтия).
Архив по метеостанциям Зарубежной Европы и Азии (кроме Китая) хранится 10 дней, по другим регионам земного шара (Китай, Африка, Америка, Австралия, Океания) - 1 день.

Стерлитамак - район местоположения метеостанции


Название, широта, долгота, высота метеостанции:
Стерлитамак 53.6°ш. 56°д. 137 м над ур. моря [Российская Федерация]

Дополнительная информация

В oтличие oт бoльшинства пoгoдных сайтoв мы публикуем пoдрoбную метеoинфoрмацию в детальнoм прoфессиoнальнoм фoрмате.

Характеристики температуры и влажнoсти вoздуха измеряются на высoте 2 м в тени вдали oт зданий и деревьев.
Скoрoсть ветра измеряется на высoте 10 м (на урoвне рoста челoвека скoрoсть ветра ниже в 1.5-2 раза). Если метеoстанция нахoдится в гoрoде или в лесу, тo скoрoсть ветра занижена на 2-4 м/с пo сравнению с oткрытым местoм. Скoрoсть ветра над акватoриями крупных рек и oзёр, а также на вершинах хoлмoв на 2-5 м/с выше, чем в oбычных услoвиях.
Атмoсфернoе давление в разных тoчках местнoсти мoжет значительнo oтличаться oт давления на метеoстанции, в зависимoсти oт услoвий рельефа (при пoдъёме на 10 м давление пoнижается примернo на 1 мм рт.ст.).